Regional Weather Roundup
Issued by NWS Newport/Morehead, NC

Current Version | Previous Version | Graphics & Text | Print | Product List | Glossary Off
Versions: 1 2 3 4 5 6 7 8 9 10 11 12 13 14 15 16 17 18 19 20 21 22 23 24 25 26 27 28 29 30 31 32 33 34 35 36 37 38 39 40 41 42 43 44 45 46 47 48 49 50

964
ASUS42 KMHX 090912
RWRMHX
WEATHER ROUNDUP FOR EASTERN NORTH CAROLINA
NATIONAL WEATHER SERVICE NEWPORT/MOREHEAD CITY NC
400 AM EST FRI DEC 09 2016

NOTE: "FAIR" INDICATES FEW OR NO CLOUDS BELOW 12,000 FEET
WITH NO SIGNIFICANT WEATHER AND/OR OBSTRUCTIONS TO VISIBILITY

NCZ015>017-031-032-045>047-102-103-091000-
NORTH COAST

CITY           SKY/WX    TMP DP  RH WIND       PRES   REMARKS
EDENTON        CLEAR     37  24  59 NW3       30.25R
ELIZABETH CITY PTCLDY    32  23  69 NW8       30.23R
KITTY HAWK     MOSUNNY   39  26  60 NW14G20   30.19R
MANTEO         PTCLDY    39  26  58 N13G20    30.21S

$$

NCZ045>047-081-094-103-104-091000-
CENTRAL COAST

CITY           SKY/WX    TMP DP  RH WIND       PRES   REMARKS
FRISCO         CLEAR     43  26  51 N8G18     30.20R

$$

NCZ095-097-098-100-101-091000-
SOUTHERN COAST

CITY           SKY/WX    TMP DP  RH WIND       PRES   REMARKS
BEAUFORT       CLEAR     40  24  53 N14       30.24R
CEDAR ISLAND   NOT AVBL
JACKSONVILLE   CLEAR     37  22  54 NW12      30.26R
PINEY ISLAND   SUNNY    N/A N/A N/A NW17      30.22S
WILMINGTON     CLEAR     36  24  62 N6        30.27R


$$

NCZ011>013-027>030-043-044-078>080-089-090>093-098-091000-
COASTAL PLAIN

CITY           SKY/WX    TMP DP  RH WIND       PRES   REMARKS
AHOSKIE        CLEAR     32  18  57 CALM      30.25R
CLINTON        CLEAR     35  25  66 CALM      30.28S
ELIZABETHTOWN  CLEAR     35  25  64 CALM      30.28R
GOLDSBORO      PTCLDY    35  17  47 NW5       30.25R
GREENVILLE     PTCLDY    34  21  60 NW3       30.27R
HAVELOCK       CLEAR     39  23  52 NW14      30.25R
KENANSVILLE    CLEAR     34  21  60 NW5       30.27S
KINSTON        CLEAR     33  21  59 NW5       30.27R
NEW BERN       CLEAR     37  20  50 NW8       30.27R
RICHLANDS      CLEAR     31  27  85 CALM      30.27R
ROCKY MOUNT    PTCLDY    35  18  49 NW12      30.27R
WASHINGTON     CLEAR     33  21  62 NW3       30.26R
WHITEVILLE     CLEAR     37  24  58 CALM      30.28R

$$

AMZ130-135-150-152-154-156-158-170-250-252-270-ANZ085-086-088-633-658-670-091000-
MARINE OBSERVATIONS

STATION/POSITION TIME  TEMP    WIND        PRES    WAVE   SWELL
                       AIR SEA DIR/SP/G            HT/PER HT/PER
                 (UTC) (F)     (DEG/KT/KT) (MB)    (FT/S) (FT/S)
CHESAPEAKE LIGHT NOT AVBL
64 E VA BEACH    0850   43 59  340/ 23/ 31 1020.9    8/ 6   2/11
DUCK             0848   41 53  330/ 19/ 22 1022.1
2 E DUCK         NOT AVBL
OREGON INLET     0842   41 54  320/ 16/ 20 1022.3
13E OREGON INLT  NOT AVBL
HATTERAS CG      0848   44 57  330/ 21/ 25 1022.2
DIAMOND BUOY     0850   48 75  350/ 23/ 31 1021.2    6/ 6   2/ 9
CAPE LOOKOUT     0900   42     340/ 22/ 26 1023.4
BEAUFORT LAB     0848   42 54  350/ 11/ 15 1022.7
30 SE NEW RVR IN 0808   49 70  360/ 21/ 29 1023.0
30 SE NEW RVR IN NOT AVBL
27 SE WRIGHTSVLE 0808   49 69  340/ 19/ 29 1022.7
5 SE WRIGHTSVLE  NOT AVBL
225 S CAPE HAT   0850   65 74  350/ 19/ 25 1018.9    7/ 6
41 SE CHARLESTON 0850   53 74  350/ 17/ 23 1023.3    4/ 6

$$




USA.gov is the U.S. government's official web portal to all federal, state and local government web resources and services.